[[{"header":{"parameterUnit":"m.s-1","parameterCategory":1,"la1":30.2991,"la2":30.254,"lo1":-89.0895,"lo2":-89.0444,"dy":0.0017,"dx":0.0017,"nx":28,"ny":28,"refTime":"2025-02-13T09:00:00:Z","depth":0,"parameterNumber":2,"parameterNumberName":"U-component_of_WINDS"},"data":[0,0,0,0,0,0,0,0,0,0,0,0,0,0,0,0,0,0,0,0,0,0,0,0,0,0,0,0,0,0,0,0,0,0,0,0,0,0,0,0,0,0,0,0,0,0,0,0,0,0,0,0,0,0,0,0,0,0,-2.5159,-2.516,0,-2.5231,-2.5232,-2.5233,-2.5182,-2.518,-2.5178,-2.5176,-2.525,-2.5254,-2.5258,0,0,0,0,0,0,0,0,0,0,0,0,0,-2.498,-2.4984,-2.5159,-2.516,-2.5161,-2.5231,-2.5232,-2.5233,-2.5183,-2.518,-2.5177,-2.5175,-2.5249,-2.5254,-2.5259,0,0,0,0,0,0,0,0,0,0,0,0,0,-2.5055,-2.4985,-2.5159,-2.5144,-2.5144,-2.5231,-2.5232,-2.5233,-2.5183,-2.518,-2.5176,-2.5173,-2.5247,-2.5253,-2.5259,-2.5365,0,0,-2.5278,-2.5281,0,0,0,0,0,0,0,0,-2.5051,-2.5062,-2.5146,-2.5146,-2.5145,-2.5194,-2.5196,-2.5277,-2.5184,-2.5168,-2.5175,-2.5172,-2.5235,-2.5242,-2.5262,-2.5369,-2.5372,-2.5279,-2.5283,-2.5285,-2.5287,0,0,0,0,0,0,0,-2.5046,-2.5059,-2.5188,-2.5147,-2.5147,-2.5135,-2.5141,-2.5211,-2.522,-2.5169,-2.5166,-2.5175,-2.5234,-2.5257,-2.5264,-2.5373,-2.5279,-2.5284,-2.5288,-2.529,-2.5569,-2.5573,0,0,0,0,0,0,-2.5042,-2.5055,-2.5185,-2.519,-2.5089,-2.514,-2.5148,-2.5182,-2.5219,-2.5221,-2.5178,-2.5172,-2.5248,-2.5257,-2.5266,-2.5393,-2.5285,-2.5291,-2.5294,-2.5565,-2.557,-2.5574,0,0,0,0,0,0,-2.5038,-2.5054,-2.5183,-2.5121,-2.5137,-2.5147,-2.5185,-2.5185,-2.5208,-2.5225,-2.5226,-2.52,-2.5245,-2.5258,-2.5341,-2.5395,-2.5294,-2.5299,-2.5561,-2.5567,-2.5572,-2.5647,0,0,0,0,0,0,-2.5033,-2.5053,-2.5093,-2.5123,-2.514,-2.5256,-2.5189,-2.5189,-2.5218,-2.5212,-2.5246,-2.5248,-2.5244,-2.5332,-2.5347,-2.5401,-2.5304,-2.5556,-2.5564,-2.557,-2.5639,-2.5654,-2.5666,0,0,0,0,0,-2.5027,-2.5112,-2.5096,-2.5112,-2.5191,-2.5259,-2.5269,-2.5262,-2.5223,-2.5264,-2.5274,-2.5247,-2.5386,-2.5341,-2.5357,-2.5414,-2.5553,-2.5562,-2.557,-2.5633,-2.5651,-2.5666,0,0,0,0,0,0,-2.509,-2.5116,-2.5098,-2.5194,-2.5225,-2.5251,-2.5302,-2.5281,-2.5324,-2.5316,-2.5305,-2.5313,-2.5401,-2.5415,-2.5365,-2.5518,-2.5463,-2.5475,-2.5506,-2.5523,-2.5536,-2.5532,-2.5309,0,0,0,0,0,-2.5114,-2.5168,-2.5187,-2.5271,-2.5287,-2.5292,-2.5321,-2.5313,-2.5344,-2.5357,-2.5374,-2.5406,-2.5456,-2.549,-2.5538,-2.564,-2.5647,-2.5688,-2.5701,-2.5712,-2.5723,-2.5779,-2.5797,-2.5602,-2.5601,-2.5601,0,0,-2.5167,-2.5187,-2.5222,-2.5284,-2.5306,-2.5362,-2.5303,-2.5364,-2.5406,-2.5366,-2.5446,-2.546,-2.5494,-2.5588,-2.563,-2.5603,-2.5779,-2.5723,-2.5732,-2.5737,-2.579,-2.5808,-2.5825,-2.5607,-2.5606,-2.5605,0,0,-2.5291,-2.5311,-2.5383,-2.5407,-2.5441,-2.5444,-2.5461,-2.549,-2.5497,-2.5576,-2.5548,-2.5597,-2.5684,-2.571,-2.5735,-2.5867,-2.5844,-2.5883,-2.5955,-2.6009,-2.6024,-2.6038,-2.6086,-2.6103,-2.5893,-2.5894,-2.5894,0,-2.5352,-2.5434,-2.5423,-2.5487,-2.5515,-2.548,-2.5553,-2.5577,-2.5625,-2.5646,-2.5614,-2.5723,-2.5744,-2.5843,-2.5875,-2.5896,-2.5916,-2.588,-2.6023,-2.6036,-2.6049,-2.6095,-2.6113,-2.5898,-2.5898,-2.5897,-2.5897,0,-2.5508,-2.5565,-2.5619,-2.5667,-2.57,-2.5768,-2.5768,-2.5803,-2.5791,-2.5797,-2.5878,-2.5902,-2.5954,-2.5976,-2.5965,-2.6074,-2.6056,-2.6024,-2.5969,-2.6072,-2.6115,-2.6133,-2.5905,-2.5903,-2.5902,-2.5901,0,0,-2.5675,-2.5714,-2.5735,-2.5755,-2.579,-2.5835,-2.5901,-2.5951,-2.5982,-2.6016,-2.6072,-2.6146,-2.6116,-2.6144,-2.6135,-2.6183,-2.6287,-2.6145,-2.6145,-2.6171,-2.6409,-2.6434,-2.6454,-2.6271,-2.6274,-2.6276,-2.6406,0,-2.5802,-2.5917,-2.5908,-2.6017,-2.607,-2.6038,-2.6095,-2.6123,-2.613,-2.6176,-2.6183,-2.6236,-2.6192,-2.6209,-2.6254,-2.6265,-2.6335,-2.6255,-2.6323,-2.6326,-2.6317,-2.6476,-2.6503,-2.6625,-2.6423,-2.6425,-2.6427,0,-2.5966,-2.6005,-2.612,-2.6146,-2.6168,-2.622,-2.6265,-2.6309,-2.6339,-2.6341,-2.6372,-2.6355,-2.6421,-2.6363,-2.6455,-2.6401,-2.6428,-2.6437,-2.6441,-2.6449,-2.6384,-2.649,-2.6663,-2.6682,-2.6453,-2.6451,-2.645,0,-2.6078,-2.616,-2.6238,-2.6257,-2.629,-2.6327,-2.6342,-2.6369,-2.64,-2.6439,-2.6458,-2.6504,-2.653,-2.6567,-2.6563,-2.652,-2.6656,-2.6598,-2.666,-2.6661,-2.6692,-2.6691,-2.6874,-2.6707,-2.6707,-2.6706,-2.6706,0,-2.6222,-2.6294,-2.6289,-2.6338,-2.6417,-2.6405,-2.6484,-2.6495,-2.6519,-2.6569,-2.6543,-2.6591,-2.6582,-2.663,-2.6627,-2.6704,-2.6716,-2.6719,-2.6718,-2.6723,-2.6722,-2.6741,-2.6733,-2.6711,-2.671,-2.6709,-2.6708,0,-2.6362,-2.6362,-2.6446,-2.6469,-2.6476,-2.6534,-2.6554,-2.66,-2.6603,-2.6667,-2.6682,-2.6688,-2.6743,-2.6742,-2.6804,-2.6802,-2.6897,-2.6885,-2.6887,-2.6885,-2.6948,-2.6943,-2.7151,-2.7178,-2.6993,-2.6995,-2.6996,0,-2.6454,-2.6509,-2.6537,-2.6569,-2.6586,-2.6638,-2.6668,-2.6658,-2.6691,-2.673,-2.6771,-2.6823,-2.6865,-2.6954,-2.6964,-2.7011,-2.7001,-2.7071,-2.7009,-2.7011,-2.7004,-2.7001,-2.7007,-2.7084,-2.7086,-2.7088,-2.7089,0,-2.6619,-2.6616,-2.6661,-2.6706,-2.6743,-2.6778,-2.681,-2.6837,-2.6831,-2.6869,-2.6925,-2.6957,-2.702,-2.7072,-2.7117,-2.7133,-2.7111,-2.7108,-2.7126,-2.7132,-2.7131,-2.7133,-2.6922,-2.7104,-2.7103,-2.7102,-2.7101,-2.71,-2.6739,-2.6786,-2.6813,-2.6864,-2.6887,-2.6917,-2.6961,-2.697,-2.7016,-2.7066,-2.7057,-2.712,-2.7148,-2.7206,-2.7226,-2.7274,-2.725,-2.7275,-2.7281,-2.7288,-2.7295,-2.7122,-2.7282,-2.7282,-2.7281,-2.7281,-2.7281,0,-2.6904,-2.6919,-2.6966,-2.7011,-2.7051,-2.7025,-2.7059,-2.7094,-2.7149,-2.7177,-2.7217,-2.7281,-2.7331,-2.7345,-2.7393,-2.7429,-2.742,-2.7442,-2.744,-2.7444,-2.7314,-2.7295,-2.7449,-2.7449,-2.7449,-2.7449,-2.7449,-2.7449,-2.6994,-2.7071,-2.7071,-2.716,-2.7174,-2.7235,-2.7257,-2.7284,-2.7307,-2.7378,-2.742,-2.7428,-2.745,-2.7499,-2.7544,-2.7547,-2.7566,-2.7593,-2.7592,-2.747,-2.7454,-2.7438,-2.742,-2.7597,-2.7597,-2.7718,-2.7719,-2.772]},{"header":{"parameterUnit":"m.s-1","parameterCategory":1,"la1":30.2991,"la2":30.254,"lo1":-89.0895,"lo2":-89.0444,"dy":0.0017,"dx":0.0017,"nx":28,"ny":28,"refTime":"2025-02-13T09:00:00:Z","depth":0,"parameterNumber":3,"parameterNumberName":"V-component_of_WINDS"},"data":[0,0,0,0,0,0,0,0,0,0,0,0,0,0,0,0,0,0,0,0,0,0,0,0,0,0,0,0,0,0,0,0,0,0,0,0,0,0,0,0,0,0,0,0,0,0,0,0,0,0,0,0,0,0,0,0,0,0,-7.3645,-7.3646,0,-7.3756,-7.3757,-7.3758,-7.368,-7.3677,-7.3673,-7.367,-7.3778,-7.3784,-7.379,0,0,0,0,0,0,0,0,0,0,0,0,0,-7.3361,-7.3367,-7.3645,-7.3647,-7.3648,-7.3756,-7.3757,-7.3759,-7.3681,-7.3677,-7.3672,-7.3669,-7.3776,-7.3784,-7.3791,0,0,0,0,0,0,0,0,0,0,0,0,0,-7.3479,-7.3369,-7.3645,-7.3622,-7.3621,-7.3755,-7.3757,-7.3759,-7.3682,-7.3677,-7.3671,-7.3667,-7.3774,-7.3783,-7.3792,-7.3953,0,0,-7.382,-7.3824,0,0,0,0,0,0,0,0,-7.3473,-7.349,-7.3624,-7.3624,-7.3623,-7.3699,-7.3697,-7.3824,-7.3683,-7.3659,-7.367,-7.3664,-7.3756,-7.3766,-7.3798,-7.3958,-7.3962,-7.3821,-7.3826,-7.383,-7.3833,0,0,0,0,0,0,0,-7.3465,-7.3485,-7.3689,-7.3626,-7.3626,-7.3605,-7.3616,-7.372,-7.3735,-7.366,-7.3655,-7.367,-7.3755,-7.379,-7.38,-7.3964,-7.3821,-7.3829,-7.3834,-7.3838,-7.426,-7.4266,0,0,0,0,0,0,-7.3459,-7.3478,-7.3685,-7.3692,-7.3534,-7.3614,-7.3627,-7.368,-7.3734,-7.3737,-7.3674,-7.3665,-7.3776,-7.379,-7.3804,-7.3995,-7.383,-7.3839,-7.3844,-7.4255,-7.4262,-7.4268,0,0,0,0,0,0,-7.3454,-7.3479,-7.3681,-7.3584,-7.3608,-7.3625,-7.3685,-7.3685,-7.372,-7.3744,-7.3745,-7.3707,-7.3773,-7.3791,-7.3917,-7.3998,-7.3843,-7.3851,-7.4248,-7.4257,-7.4265,-7.438,0,0,0,0,0,0,-7.3446,-7.3477,-7.354,-7.3586,-7.3614,-7.3794,-7.369,-7.3691,-7.3737,-7.3727,-7.3776,-7.3779,-7.377,-7.3903,-7.3926,-7.4008,-7.3858,-7.4241,-7.4252,-7.4262,-7.4369,-7.4392,-7.4411,0,0,0,0,0,-7.3436,-7.3567,-7.3543,-7.3569,-7.3693,-7.3799,-7.3814,-7.3803,-7.3743,-7.3806,-7.3821,-7.3777,-7.3986,-7.3917,-7.3941,-7.4028,-7.4235,-7.4249,-7.4261,-7.436,-7.4388,-7.4411,0,0,0,0,0,0,-7.3528,-7.3572,-7.3547,-7.3697,-7.3745,-7.3785,-7.3864,-7.3833,-7.3897,-7.3885,-7.3867,-7.3878,-7.401,-7.4031,-7.3954,-7.4186,-7.4101,-7.4119,-7.4168,-7.4194,-7.4214,-7.4206,-7.3866,0,0,0,0,0,-7.3566,-7.365,-7.3684,-7.3813,-7.3838,-7.3847,-7.3893,-7.388,-7.3928,-7.3948,-7.3972,-7.4019,-7.4095,-7.4145,-7.4216,-7.4372,-7.4381,-7.4443,-7.4464,-7.4481,-7.4497,-7.458,-7.4608,-7.431,-7.431,-7.431,0,0,-7.3645,-7.3679,-7.3733,-7.3832,-7.3868,-7.3954,-7.3865,-7.3959,-7.4023,-7.3961,-7.4083,-7.4102,-7.4153,-7.4294,-7.4358,-7.4316,-7.4581,-7.4497,-7.4511,-7.4518,-7.4596,-7.4624,-7.465,-7.4319,-7.4317,-7.4316,0,0,-7.3832,-7.3868,-7.3979,-7.4017,-7.4073,-7.4078,-7.4105,-7.415,-7.4161,-7.4283,-7.4239,-7.4312,-7.4444,-7.4482,-7.4518,-7.4721,-7.4683,-7.4744,-7.4853,-7.4934,-7.4958,-7.4979,-7.5051,-7.5077,-7.476,-7.476,-7.476,0,-7.3923,-7.4053,-7.404,-7.4139,-7.4183,-7.4133,-7.4245,-7.4282,-7.4357,-7.4388,-7.434,-7.4504,-7.4535,-7.4684,-7.4734,-7.4765,-7.4794,-7.4739,-7.4956,-7.4977,-7.4996,-7.5064,-7.5091,-7.4767,-7.4767,-7.4766,-7.4765,0,-7.4161,-7.4252,-7.4335,-7.4411,-7.4465,-7.4569,-7.4571,-7.4626,-7.4609,-7.4618,-7.4741,-7.4777,-7.4854,-7.4888,-7.4871,-7.5035,-7.5008,-7.4959,-7.4873,-7.5032,-7.5095,-7.5121,-7.4778,-7.4775,-7.4773,-7.4771,0,0,-7.441,-7.4479,-7.4509,-7.4543,-7.4601,-7.467,-7.4771,-7.4849,-7.4897,-7.495,-7.5034,-7.5146,-7.5101,-7.5143,-7.5129,-7.5201,-7.5358,-7.5143,-7.5143,-7.5181,-7.5541,-7.5578,-7.5608,-7.5333,-7.5338,-7.5342,-7.5536,0,-7.4601,-7.4781,-7.4773,-7.494,-7.5023,-7.4977,-7.5065,-7.5109,-7.5121,-7.5191,-7.5202,-7.5283,-7.5217,-7.5242,-7.531,-7.5325,-7.543,-7.5311,-7.541,-7.5414,-7.54,-7.5642,-7.5681,-7.5862,-7.5561,-7.5565,-7.5568,0,-7.4849,-7.4913,-7.5089,-7.5135,-7.5169,-7.5249,-7.5319,-7.5388,-7.5436,-7.5439,-7.5486,-7.5461,-7.5562,-7.5474,-7.5612,-7.5531,-7.5571,-7.5584,-7.5591,-7.56,-7.5501,-7.5657,-7.592,-7.5947,-7.5608,-7.5604,-7.5602,0,-7.5013,-7.5143,-7.5265,-7.5296,-7.5352,-7.5409,-7.5434,-7.5478,-7.5525,-7.5585,-7.5615,-7.5686,-7.5725,-7.5779,-7.5773,-7.571,-7.5914,-7.5825,-7.5918,-7.5919,-7.5963,-7.5961,-7.6237,-7.5989,-7.5989,-7.5988,-7.5988,0,-7.5227,-7.5337,-7.534,-7.5415,-7.5537,-7.5524,-7.5644,-7.5663,-7.5702,-7.5779,-7.5742,-7.5814,-7.5802,-7.5874,-7.587,-7.5985,-7.6002,-7.6007,-7.6004,-7.6011,-7.601,-7.6036,-7.6024,-7.5995,-7.5994,-7.5992,-7.5991,0,-7.5432,-7.5438,-7.5568,-7.5611,-7.5624,-7.5712,-7.5747,-7.5818,-7.5826,-7.5924,-7.5946,-7.5958,-7.6041,-7.6041,-7.6134,-7.6131,-7.6272,-7.6255,-7.6257,-7.6254,-7.6347,-7.6338,-7.6649,-7.6689,-7.6416,-7.6419,-7.6421,0,-7.5568,-7.5652,-7.5704,-7.5754,-7.5784,-7.5864,-7.5913,-7.5903,-7.5954,-7.6016,-7.6079,-7.6158,-7.6222,-7.6356,-7.6372,-7.6444,-7.6428,-7.6532,-7.6438,-7.6442,-7.643,-7.6425,-7.6433,-7.6551,-7.6554,-7.6556,-7.6558,0,-7.581,-7.5809,-7.5881,-7.5955,-7.6014,-7.6071,-7.6123,-7.6165,-7.6161,-7.6221,-7.6306,-7.6356,-7.6452,-7.6532,-7.6601,-7.6624,-7.6591,-7.6588,-7.6613,-7.662,-7.6618,-7.662,-7.6307,-7.6581,-7.6578,-7.6577,-7.6575,-7.6575,-7.5985,-7.6057,-7.6106,-7.6187,-7.6225,-7.6275,-7.6344,-7.6361,-7.6433,-7.6512,-7.6501,-7.6597,-7.6641,-7.6731,-7.6761,-7.6834,-7.6797,-7.6833,-7.6843,-7.6852,-7.6862,-7.6606,-7.6846,-7.6845,-7.6845,-7.6844,-7.6844,0,-7.6225,-7.6254,-7.6329,-7.6404,-7.6468,-7.6432,-7.6488,-7.6543,-7.6628,-7.6674,-7.6737,-7.6835,-7.6912,-7.6934,-7.7008,-7.7062,-7.7048,-7.7081,-7.7077,-7.7083,-7.6891,-7.6862,-7.7091,-7.7091,-7.7091,-7.7091,-7.7091,-7.7091,-7.6357,-7.6478,-7.6483,-7.6621,-7.6648,-7.6743,-7.6778,-7.6823,-7.686,-7.6971,-7.7035,-7.705,-7.7086,-7.7162,-7.723,-7.7234,-7.7263,-7.7303,-7.7301,-7.7121,-7.7096,-7.7073,-7.7045,-7.7309,-7.7309,-7.7486,-7.7488,-7.7489]}]]